#timestamp,LO_Frequency,Hit,StdDev 
1540533615.0,286046997.6,N
1540533615.9,286046997.6,N
1540533635.8,286046994.9,Y
1540533655.6,286046998.8,P
1540533675.5,286047000.4,N
1540533695.3,286047000.1,N
1540533715.1,286047000.3,N
1540533735.9,286047000.7,N
1540533755.7,286047000.0,N
1540533775.5,286046998.2,N
1540533795.4,286046998.6,N
1540533815.2,286047000.0,N
1540533835.1,286047000.4,N
1540533836.0,286047000.4,N
1540533855.8,286047000.3,N
1540533875.6,286047002.5,N
1540533895.5,286047002.7,N
1540533915.3,286047000.6,N
1540533935.1,286047001.9,N
1540533955.9,286047001.5,N
1540533975.7,286047000.6,N
1540533995.6,286046998.5,N
1540534015.4,286047002.2,N
1540534035.2,286046999.9,N
1540534055.1,286047000.6,N
1540534056.0,286047000.6,N
1540534075.8,286047000.1,N
1540534095.6,286047002.2,N
1540534115.5,286047002.4,N
1540534135.3,286047000.4,N
1540534155.2,286046999.8,N
1540534175.9,286047000.2,N
1540534195.7,286046998.5,N
1540534215.6,286047001.0,N
1540534235.4,286047002.4,N
1540534255.2,286047001.0,N
1540534275.1,286047000.7,N
1540534276.0,286047000.7,N
1540534295.8,286047000.0,N
1540534315.7,286047000.8,N
1540534335.5,286046998.2,N
1540534355.3,286046999.0,N
1540534375.2,286046999.3,N
1540534395.0,286047000.5,N
1540534395.9,286047000.5,N
1540534415.8,286047000.4,N
1540534435.6,286047002.2,N
1540534455.4,286047000.3,N
1540534475.3,286046998.6,N
1540534495.1,286047001.0,N
1540534515.8,286046998.8,N
1540534535.7,286047000.3,N
1540534555.5,286046998.2,N
1540534575.4,286046998.3,N
1540534595.2,286046996.5,N
1540534615.0,286046998.0,N
1540534615.9,286046998.0,N
1540534635.8,286046996.3,N
1540534655.6,286046995.7,N
1540534675.4,286046995.9,N
1540534695.3,286046993.7,Y
1540534715.1,286046996.0,P
1540534735.9,286046995.8,N
1540534755.7,286046996.2,N
1540534775.5,286046995.7,N
1540534795.4,286046996.4,N
1540534815.2,286046998.0,N
1540534835.0,286046996.9,N
1540534836.0,286046996.9,N
1540534855.8,286046997.2,N
1540534875.6,286046997.6,N
1540534895.5,286046998.0,N
1540534915.3,286046995.1,Y
1540534935.1,286047001.2,P
1540534955.9,286046996.7,N
1540534975.7,286046999.3,N
1540534995.6,286046996.9,N
1540535015.4,286046998.0,N
1540535035.2,286046999.2,N
1540535055.1,286046996.9,N
1540535056.0,286046996.9,N
1540535075.8,286046999.6,N
1540535095.6,286047000.8,N
1540535115.5,286046998.2,N
1540535135.3,286047001.2,N
1540535155.2,286047001.0,N
1540535175.9,286046998.1,N
1540535195.7,286046998.7,N
1540535215.6,286046996.7,N
1540535235.4,286046999.0,N
1540535255.3,286046998.2,N
1540535275.1,286046999.2,N
1540535276.0,286046999.2,N
1540535295.8,286046999.5,N
1540535315.7,286046998.9,N
1540535335.5,286046999.4,N
1540535355.3,286046998.4,N
1540535375.2,286046999.4,N
1540535395.0,286046998.5,N
1540535395.9,286046998.5,N
1540535415.8,286047000.6,N
1540535435.6,286047000.4,N
1540535455.4,286047000.3,N
1540535475.3,286047000.8,N
1540535495.1,286046999.2,N
1540535515.9,286046999.0,N
1540535535.7,286046996.7,N
1540535555.5,286046997.2,N
1540535575.4,286046996.7,N
1540535595.2,286046996.9,N
1540535615.0,286046996.2,N
1540535615.9,286046996.2,N
1540535635.8,286046993.5,Y
1540535655.6,286046995.3,P
1540535675.5,286046995.0,N
1540535695.3,286046996.9,N
1540535715.1,286046999.2,N
1540535735.9,286046998.4,N
1540535755.7,286047000.7,N
1540535775.5,286047000.1,N
1540535795.4,286046999.9,N
1540535815.2,286046997.3,N
1540535835.1,286046997.7,N
1540535836.0,286046997.7,N
1540535855.8,286046996.7,N
1540535875.6,286046997.5,N
1540535895.5,286046997.9,N
1540535915.3,286047001.2,N
1540535935.2,286047000.8,N
1540535955.9,286046999.3,N
1540535975.7,286046999.0,N
1540535995.6,286046996.7,N
1540536015.4,286046999.1,N
1540536035.2,286046998.6,N
1540536055.1,286046998.9,N
1540536056.0,286046998.9,N
1540536075.8,286046999.3,N
1540536095.7,286046997.5,N
1540536115.5,286046997.7,N
1540536135.3,286046995.7,N
1540536155.2,286046997.4,N
1540536175.0,286046997.6,N
1540536175.9,286046997.6,N
1540536195.7,286046997.6,N
1540536215.6,286046996.4,N
1540536235.4,286046996.3,N
1540536255.3,286046997.4,N
1540536275.1,286046996.2,N
1540536276.0,286046996.2,N
1540536295.8,286046996.3,N
1540536315.7,286046996.2,N
1540536335.5,286046995.5,Y
1540536355.4,286046999.0,P
1540536375.2,286046997.2,P
1540536395.0,286046994.9,P
1540536395.9,286046994.9,Y
1540536415.8,286046997.3,P
1540536435.6,286046997.2,P
1540536455.5,286046997.3,P
1540536475.3,286046998.5,Y
1540536495.1,286047004.0,P
1540536515.9,286047004.4,N
1540536535.7,286047001.8,N
1540536555.5,286047002.9,N
1540536575.4,286047005.2,N
1540536595.2,286047004.3,N
1540536615.1,286047003.9,N
1540536616.0,286047003.9,N
1540536635.8,286047001.7,N
1540536655.6,286047001.6,N
1540536675.5,286047003.1,N
1540536695.3,286047003.4,N
1540536715.1,286047005.5,N
1540536735.9,286047005.7,N
1540536755.7,286047004.2,N
1540536775.6,286047003.6,N
1540536795.4,286047004.4,N
1540536815.2,286047004.3,N
1540536835.1,286047003.4,N
1540536836.0,286047003.4,N
1540536855.8,286047004.2,N
1540536875.7,286047004.4,N
1540536895.5,286046999.7,N
1540536915.3,286046999.7,N
1540536935.2,286047004.3,N
1540536955.0,286047001.9,N
1540536955.9,286047001.9,N
1540536975.8,286047001.9,N
1540536995.6,286046999.7,N
1540537015.4,286047002.3,N
1540537065.3,286047002.9,E
1540537075.2,286047003.6,N
1540537095.0,286047001.9,P
1540537096.0,286047001.9,N
1540537115.8,286047001.6,N
1540537135.6,286047001.6,N
1540537155.5,286047002.3,Y
1540537175.3,286047001.2,P
1540537195.1,286047000.9,N
